Temperature
19 17 17 18 18 18 18 17 17 17 17 17 16 16 15 15 15 15 16 16 17 17 17 17 18 18 17 17 17 17 17 17 16 16 16 16 15 15 15 15 14 14 14 14
17 18 19 18 18 18 18 17 17 17 17 17 16 15 15 15 15 15 15 16 16 16 17 17 17 17 17 17 17 17 17 17 16 16 16 15 15 15 15 14 14 14 14 14
19 19 19 19 18 18 18 17 17 17 17 16 16 15 15 15 15 15 16 16 16 16 16 17 17 17 17 17 17 16 16 16 16 16 15 15 15 15 15 14 14 14 14 14
18 18 19 19 18 18 18 18 17 17 16 15 16 15 15 14 14 14 15 15 15 16 16 16 16 16 16 16 16 16 16 16 16 15 15 15 15 14 14 14 14 14 14 13
18 19 19 19 19 18 18 18 17 16 15 15 15 15 14 14 14 14 14 15 15 16 16 16 16 16 16 16 16 16 16 15 15 15 15 15 14 14 14 14 13 13 13 13
18 18 19 19 19 18 17 16 15 14 14 15 15 14 14 13 14 14 14 15 15 16 15 16 16 16 16 15 15 15 15 15 15 15 14 14 14 14 14 14 13 13 13 13
17 18 18 19 18 18 17 15 15 15 14 14 14 14 14 15 14 14 14 15 15 15 15 15 15 15 15 15 15 15 15 15 14 14 14 14 14 14 13 13 13 13 13 13
17 16 18 18 18 17 16 16 15 15 14 14 14 14 14 14 14 15 15 15 15 15 15 15 15 15 15 15 15 15 15 14 14 14 14 14 13 13 13 13 13 13 12 12
16 16 17 18 18 17 17 15 15 14 14 14 13 13 14 14 13 13 14 14 15 15 15 15 15 15 15 15 15 14 14 14 14 13 13 13 13 13 13 13 12 12 12 12
16 16 17 17 17 17 16 14 13 14 14 14 14 14 14 14 13 13 13 13 14 15 15 15 14 14 14 14 14 14 14 14 13 13 13 13 13 12 12 12 12 12 12 12
15 15 15 16 16 16 15 15 13 12 13 13 13 14 14 14 14 13 13 14 14 14 15 15 14 14 14 14 14 14 13 13 13 13 13 13 12 12 12 12 12 12 11 11
14 13 13 15 15 16 16 15 13 14 13 11 12 13 15 13 13 13 13 14 14 14 14 14 14 14 14 13 13 13 13 13 13 13 13 12 12 12 12 12 11 11 11 11
14 13 13 14 15 15 15 14 14 12 11 10 12 14 14 13 13 14 14 14 14 14 14 14 13 13 13 13 13 13 12 12 12 12 12 12 12 12 11 11 11 11 11 11
14 12 13 14 14 14 14 14 13 13 12 11 12 13 14 13 13 13 14 14 14 14 13 13 13 13 13 13 12 12 12 12 12 12 12 12 12 11 11 11 11 11 10 10
13 13 13 13 14 14 14 14 14 13 12 12 13 13 14 13 12 13 14 13 13 13 13 13 13 13 12 12 12 12 11 11 11 11 11 11 11 11 11 10 10 10 10 10
11 12 13 13 14 13 13 14 14 13 13 13 13 13 13 13 13 13 13 13 13 13 13 13 13 12 12 12 12 11 11 11 11 11 11 11 11 10 10 10 10 10 10 9
10 11 12 12 12 13 13 13 13 13 13 13 13 13 12 12 12 12 13 13 13 13 13 13 13 13 12 12 12 11 11 11 10 10 10 10 10 10 10 10 9 9 9 9
10 10 10 10 12 13 13 13 13 13 13 12 12 12 12 12 13 13 14 13 13 13 13 13 13 12 12 12 11 11 11 10 10 10 10 10 10 10 9 9 9 9 9 9
10 10 9 9 11 11 13 13 13 13 13 12 12 12 12 12 12 12 14 14 13 13 13 13 12 12 12 11 11 11 10 10 10 10 10 10 9 9 9 9 9 8 8 8
9 9 9 9 11 11 13 13 13 13 12 12 12 11 11 11 10 11 14 13 13 13 13 12 12 12 11 11 11 10 10 10 10 10 9 9 9 9 9 9 8 8 8 8
10 9 9 9 10 10 12 13 13 13 12 13 13 12 12 11 12 13 13 13 13 13 12 12 12 11 11 11 11 10 10 10 10 9 9 9 9 9 9 8 8 8 8 7
10 9 9 8 9 11 12 12 12 12 13 13 13 13 13 13 12 12 12 12 12 12 12 12 11 11 11 11 10 10 10 10 9 9 9 9 9 8 8 8 8 7 7 7
9 9 9 9 11 12 12 13 14 14 13 14 13 13 13 12 12 12 12 12 12 11 11 11 11 10 10 10 10 10 10 9 9 9 9 9 8 8 8 8 7 7 7 7
8 8 8 8 9 11 12 13 13 13 13 13 13 13 13 12 12 12 11 11 11 11 11 11 10 10 10 10 10 10 9 9 9 9 9 8 8 8 8 7 7 7 7 6
8 8 8 8 9 11 12 13 13 13 13 13 13 12 12 12 12 11 11 11 11 10 10 10 10 10 9 9 9 9 9 9 9 9 8 8 8 8 7 7 7 7 7 7
7 8 8 9 11 10 12 13 13 12 12 12 12 12 12 11 11 11 11 10 10 10 10 9 9 9 9 9 9 9 8 8 8 8 8 8 8 7 7 7 7 7 6 6
Wind_Speed
4 5 2 5 5 4 4 3 1 3 2 1 3 4 4 3 2 3 3 3 3 3 3 1 1 1 2 2 3 3 3 2 3 2 2 1 1 1 1 2 3 3 3 3
6 1 3 2 3 4 4 3 1 3 1 1 2 4 4 3 4 5 5 5 4 2 1 1 1 2 2 2 3 4 3 3 3 2 2 2 1 1 0 2 3 3 3 3
3 3 0 3 4 3 2 5 4 3 2 2 1 5 4 3 3 3 3 3 3 4 3 1 1 1 2 1 2 3 3 3 3 2 3 3 2 2 2 2 2 3 3 2
1 3 1 2 2 4 3 4 5 3 1 2 0 4 6 4 3 3 4 3 3 2 2 2 1 1 1 1 2 2 2 3 2 3 4 4 3 2 1 1 1 1 2 2
2 1 1 1 3 4 4 1 3 2 2 1 1 2 7 2 4 6 5 5 4 3 3 2 2 2 1 1 2 2 3 3 2 3 3 4 3 1 0 1 1 1 2 2
2 2 1 2 1 2 3 5 6 5 4 2 3 4 6 4 6 5 4 4 4 4 3 2 1 1 1 1 2 2 3 2 2 3 3 3 3 2 2 1 1 1 1 1
5 4 3 1 3 4 5 5 3 4 3 5 2 3 7 6 6 5 6 6 5 4 3 2 1 1 1 1 1 1 3 2 2 2 2 3 3 3 3 1 1 0 1 1
0 5 3 1 3 3 2 6 5 4 4 5 3 5 6 4 3 3 3 4 3 3 3 3 2 2 2 1 1 1 2 2 1 2 2 1 2 2 1 1 1 2 2 2
3 5 4 2 0 5 3 2 4 5 1 3 6 6 7 1 2 1 1 3 4 4 4 3 2 2 2 2 1 2 2 2 1 2 2 1 1 1 1 1 1 1 2 1
5 3 4 3 3 3 3 6 5 4 2 4 6 5 5 5 4 3 3 4 4 3 3 3 3 3 2 2 2 1 2 2 2 1 2 2 2 2 2 1 1 1 2 1
3 3 4 3 2 3 2 3 4 3 3 4 4 7 5 6 6 6 7 6 5 5 5 4 3 3 2 2 1 1 1 1 0 1 2 2 2 2 2 2 2 2 2 2
3 4 2 5 4 2 3 5 6 3 4 4 3 7 5 4 5 5 6 5 4 4 3 3 3 2 2 2 2 2 2 1 2 2 2 2 2 2 2 2 3 3 3 3
4 4 2 6 5 2 1 2 4 4 3 4 4 8 3 3 4 4 5 4 4 3 3 2 2 3 3 3 3 2 2 3 2 2 2 2 2 2 3 4 3 3 3 3
4 4 6 7 6 4 4 4 3 4 4 5 8 10 9 7 6 6 5 5 4 4 4 4 3 3 3 3 3 3 3 3 3 2 2 3 3 3 4 4 3 3 3 3
4 3 5 7 7 5 7 8 7 8 8 8 9 10 12 9 8 6 5 4 4 4 5 5 5 4 3 3 3 3 3 3 3 3 3 4 4 3 3 3 4 3 3 4
2 3 2 4 4 5 8 10 9 9 8 9 9 10 9 6 3 3 4 5 6 6 7 6 5 5 5 5 4 4 4 4 3 4 4 4 3 3 3 4 4 3 3 3
2 4 2 4 5 4 7 8 8 6 6 6 9 9 5 4 5 6 6 6 6 7 6 6 6 6 6 6 5 5 5 4 4 4 5 4 4 4 4 4 3 4 4 3
6 4 3 1 2 6 8 3 5 6 6 6 6 6 5 5 5 4 4 6 6 6 6 6 5 6 5 5 5 4 4 4 4 4 5 4 4 4 4 4 4 4 4 4
5 6 3 3 3 8 8 3 4 5 6 5 6 5 4 2 3 4 4 4 6 6 5 5 5 5 4 5 5 4 4 4 4 5 6 6 5 5 4 5 5 5 4 4
4 4 4 3 3 6 7 3 2 2 5 4 4 4 2 1 2 6 4 3 4 3 3 4 3 3 4 5 4 4 4 5 6 7 7 6 5 5 6 6 5 4 4 5
2 2 4 5 6 8 7 3 3 2 7 4 3 4 4 5 6 5 3 3 3 3 3 2 2 3 4 4 3 3 4 6 7 5 5 5 5 6 6 5 4 3 3 3
6 5 5 5 5 8 3 3 4 7 4 3 3 4 5 6 5 4 3 3 2 2 2 2 2 3 3 3 3 4 6 6 4 4 4 5 5 5 4 4 3 3 3 3
7 7 6 8 8 5 3 5 5 4 4 5 4 5 4 4 5 5 4 3 3 3 3 2 2 3 3 3 4 5 6 4 4 4 4 4 4 4 4 4 4 4 4 4
4 2 3 5 8 7 7 6 5 5 6 6 5 4 4 5 5 5 4 4 3 3 3 2 2 3 4 4 4 5 5 3 3 4 4 4 4 4 3 3 4 4 5 5
6 4 4 7 9 7 7 6 6 6 5 5 4 4 5 5 5 5 5 4 4 3 3 2 3 4 5 4 4 4 3 2 3 4 4 4 4 4 4 4 4 6 6 7
6 7 7 9 8 6 9 7 5 5 6 6 5 5 4 4 5 4 5 4 4 4 3 3 4 4 5 4 5 4 3 3 3 3 4 3 3 3 3 3 4 5 6 8
Wind_Direction
32 72 143 207 192 179 157 151 218 267 280 128 218 249 269 251 221 229 230 226 225 243 269 300 112 111 129 128 140 149 143 144 138 139 147 140 145 35 41 45 44 54 60 65
43 350 244 168 130 120 132 138 234 299 336 167 248 274 270 234 225 223 221 221 217 224 308 348 56 79 115 159 164 157 160 162 159 171 172 152 141 123 92 28 33 38 51 56
160 255 231 122 109 116 171 179 200 222 356 34 23 314 280 264 243 240 236 224 213 195 203 209 108 115 100 107 154 158 171 167 157 136 109 90 74 52 40 12 3 12 28 43
242 287 113 115 156 150 239 225 183 168 114 283 106 284 277 256 271 249 239 222 215 211 193 173 160 154 157 180 124 121 141 142 143 139 134 132 133 158 216 243 281 7 29 29
279 287 116 177 223 176 215 108 114 112 133 348 317 223 285 288 256 250 235 222 220 210 190 180 179 188 190 129 120 113 121 128 132 134 146 141 137 147 111 59 51 5 7 18
278 303 203 200 45 126 117 69 58 53 70 303 240 195 276 243 230 241 228 222 215 204 191 185 174 106 69 66 95 98 104 124 131 129 131 137 142 128 109 72 45 337 330 357
343 337 341 95 71 31 78 86 32 357 359 257 254 209 251 252 237 223 216 216 212 197 176 172 151 121 100 87 110 111 109 107 129 135 146 155 153 147 156 183 200 249 314 318
185 295 301 346 168 169 153 139 158 212 238 278 296 239 256 265 271 243 202 191 188 195 186 181 189 178 178 185 160 136 132 119 137 150 164 156 155 161 179 189 197 221 243 250
180 256 301 317 258 136 132 159 163 146 198 271 280 285 300 322 351 15 155 165 195 200 193 189 185 186 186 189 194 177 156 148 165 175 165 156 161 168 199 209 200 224 264 270
159 239 296 313 51 33 138 143 102 124 179 266 287 278 260 264 259 241 216 207 214 207 201 199 195 199 206 200 191 170 170 184 199 197 184 173 198 211 209 199 231 247 262 277
125 165 310 355 207 201 91 104 110 120 159 180 270 273 235 229 225 221 225 220 218 218 211 205 205 203 206 203 181 183 186 188 228 236 207 187 210 220 208 219 239 243 253 253
122 125 258 269 270 226 183 177 152 167 228 192 218 269 276 240 237 225 230 225 220 218 209 201 195 192 204 214 212 208 204 218 236 232 216 206 215 214 215 237 246 240 252 251
133 114 16 338 339 355 189 181 163 144 141 180 206 263 287 298 275 248 238 229 222 215 199 192 191 202 216 223 224 224 226 231 240 234 228 220 224 223 231 241 245 238 241 244
122 141 183 215 236 239 259 247 196 160 189 221 228 256 282 286 276 265 248 230 225 213 201 198 211 219 223 233 233 234 243 237 233 232 238 234 235 236 242 248 245 239 234 231
112 190 226 243 255 248 249 248 229 219 215 217 244 249 264 263 251 250 235 221 225 223 215 211 216 223 226 235 242 236 239 244 238 235 245 244 243 244 250 256 253 247 237 236
103 178 222 279 273 263 265 256 240 232 232 237 257 266 265 271 255 249 233 219 223 228 227 223 221 220 222 223 233 239 240 239 230 233 247 250 246 246 247 250 251 250 248 245
158 150 161 267 298 321 272 241 221 224 224 210 236 255 280 294 259 244 233 222 224 233 232 227 226 227 228 223 221 230 237 233 227 234 244 242 237 241 246 248 249 245 243 241
158 149 162 244 358 249 248 241 207 224 246 230 246 265 253 251 261 266 235 217 231 233 227 229 231 235 237 234 229 230 234 225 226 236 246 242 233 239 244 239 240 243 245 239
167 153 152 161 232 273 289 266 196 208 262 238 239 266 280 307 346 309 264 224 228 229 227 228 231 232 231 233 231 224 233 230 232 240 246 241 231 235 240 242 243 242 239 242
87 119 140 158 205 247 253 270 224 132 277 257 217 238 258 90 305 284 276 249 242 239 234 231 227 227 225 235 221 216 234 234 238 242 244 240 231 229 234 240 246 248 241 244
91 109 171 191 227 260 258 270 104 170 254 276 225 226 211 218 239 272 287 265 249 245 245 233 224 233 231 221 198 220 238 244 247 248 247 242 234 233 233 236 241 240 242 246
186 183 194 173 210 255 252 129 185 229 264 259 241 231 227 248 270 283 281 273 268 269 263 236 237 266 259 224 204 225 243 251 254 250 242 243 242 239 235 224 235 231 226 234
205 198 195 197 220 248 226 224 248 246 257 259 246 247 230 252 268 269 267 265 268 258 253 250 234 264 273 246 218 226 247 249 245 248 246 247 248 241 229 221 223 229 226 230
253 196 197 250 262 261 263 264 268 265 263 268 261 251 242 252 259 260 259 260 263 264 260 262 245 259 274 266 251 240 247 239 230 239 247 249 244 244 238 231 224 226 229 233
225 192 223 256 272 290 279 261 268 277 276 276 280 262 243 242 259 255 255 254 253 264 273 262 248 253 266 271 267 258 250 223 233 245 247 247 239 234 237 241 237 236 237 235
205 201 209 242 245 242 267 269 268 268 271 270 275 279 268 246 251 255 253 250 248 256 266 268 267 264 270 273 273 271 257 224 224 246 249 242 234 233 235 243 272 273 263 266
Height
1509 1514 1519 1518 1517 1518 1522 1527 1530 1528 1523 1525 1527 1527 1524 1523 1523 1523 1522 1522 1523 1523 1524 1525 1525 1526 1527 1528 1528 1529 1529 1530 1530 1530 1530 1530 1530 1530 1530 1530 1530 1530 1529 1528
1515 1518 1514 1513 1514 1518 1522 1528 1530 1527 1523 1525 1528 1527 1523 1522 1521 1521 1520 1520 1521 1522 1522 1523 1524 1525 1525 1526 1526 1527 1527 1528 1529 1529 1529 1529 1530 1530 1530 1530 1530 1529 1529 1528
1516 1515 1511 1513 1516 1520 1523 1526 1527 1528 1526 1526 1528 1530 1525 1521 1520 1520 1520 1519 1520 1520 1521 1521 1522 1523 1524 1524 1525 1526 1527 1527 1528 1528 1529 1529 1529 1529 1529 1529 1529 1528 1528 1527
1515 1512 1512 1514 1517 1519 1525 1519 1521 1524 1531 1536 1532 1541 1527 1522 1521 1519 1518 1518 1519 1519 1520 1520 1521 1522 1522 1523 1524 1524 1525 1526 1527 1527 1527 1527 1527 1527 1527 1528 1527 1527 1527 1527
1515 1512 1513 1515 1515 1515 1518 1517 1521 1525 1531 1537 1535 1540 1532 1523 1522 1518 1516 1516 1517 1518 1518 1519 1520 1521 1521 1522 1522 1523 1524 1524 1525 1525 1526 1526 1526 1526 1526 1527 1527 1526 1526 1525
1514 1511 1511 1512 1512 1513 1516 1521 1526 1532 1536 1544 1536 1540 1535 1525 1518 1515 1513 1514 1515 1516 1517 1518 1519 1520 1521 1521 1522 1522 1522 1523 1524 1524 1524 1525 1525 1525 1525 1525 1525 1524 1524 1524
1518 1514 1511 1511 1515 1516 1518 1530 1544 1545 1550 1546 1534 1537 1531 1515 1512 1511 1511 1512 1513 1514 1515 1517 1518 1518 1519 1520 1520 1521 1521 1521 1522 1522 1523 1523 1523 1523 1523 1523 1523 1523 1522 1522
1527 1527 1515 1512 1514 1518 1521 1527 1543 1550 1552 1546 1535 1536 1522 1511 1509 1508 1508 1509 1511 1512 1514 1515 1516 1517 1518 1519 1519 1519 1520 1520 1521 1521 1521 1521 1521 1521 1521 1521 1521 1521 1520 1520
1528 1527 1514 1512 1512 1515 1521 1527 1528 1540 1543 1546 1540 1530 1517 1510 1509 1508 1508 1508 1509 1510 1512 1513 1514 1516 1516 1517 1517 1518 1518 1519 1519 1519 1519 1519 1520 1520 1520 1520 1519 1519 1519 1518
1520 1526 1518 1514 1513 1515 1517 1524 1533 1539 1547 1549 1540 1533 1526 1513 1510 1509 1508 1507 1508 1509 1510 1511 1512 1513 1514 1515 1515 1516 1517 1517 1517 1517 1517 1517 1518 1518 1518 1518 1517 1517 1516 1516
1517 1525 1523 1519 1518 1520 1522 1526 1531 1539 1541 1549 1547 1534 1510 1508 1506 1506 1505 1505 1505 1506 1507 1508 1510 1511 1512 1513 1513 1514 1514 1515 1515 1515 1515 1515 1515 1515 1515 1515 1515 1514 1514 1514
1518 1526 1530 1523 1516 1515 1517 1521 1528 1537 1540 1543 1545 1531 1504 1503 1502 1502 1502 1503 1503 1504 1505 1506 1507 1508 1509 1510 1510 1511 1511 1512 1512 1512 1512 1512 1512 1512 1512 1512 1512 1511 1511 1511
1518 1526 1534 1530 1527 1520 1518 1519 1522 1528 1537 1543 1542 1526 1503 1502 1500 1500 1500 1500 1501 1502 1503 1504 1504 1505 1506 1507 1507 1507 1508 1508 1509 1509 1508 1508 1508 1508 1508 1508 1508 1508 1508 1507
1514 1524 1529 1531 1526 1521 1520 1518 1520 1525 1534 1536 1529 1517 1505 1502 1500 1498 1498 1498 1499 1499 1500 1501 1502 1503 1503 1504 1504 1504 1504 1505 1505 1505 1505 1505 1505 1505 1505 1505 1504 1504 1504 1504
1513 1522 1521 1520 1517 1517 1517 1515 1516 1519 1520 1523 1515 1512 1502 1498 1497 1495 1495 1495 1496 1497 1497 1498 1499 1499 1500 1500 1501 1501 1501 1501 1502 1501 1501 1501 1501 1501 1501 1501 1501 1500 1500 1500
1515 1519 1519 1518 1515 1515 1515 1511 1510 1510 1511 1511 1508 1505 1496 1494 1493 1493 1492 1492 1493 1493 1494 1495 1496 1496 1496 1497 1497 1497 1498 1498 1498 1498 1498 1497 1497 1497 1497 1497 1497 1496 1496 1496
1517 1520 1523 1525 1518 1515 1516 1506 1505 1505 1503 1503 1505 1499 1493 1492 1491 1489 1489 1489 1489 1490 1491 1492 1492 1492 1493 1493 1494 1494 1494 1494 1494 1494 1494 1494 1493 1493 1493 1493 1492 1492 1491 1491
1515 1520 1525 1526 1522 1522 1507 1497 1497 1499 1497 1496 1494 1492 1490 1489 1488 1487 1486 1486 1487 1487 1488 1488 1488 1489 1489 1490 1490 1490 1490 1490 1490 1490 1489 1489 1489 1488 1488 1488 1487 1487 1487 1487
1509 1516 1524 1529 1526 1517 1503 1495 1495 1497 1496 1490 1490 1489 1488 1487 1486 1485 1484 1484 1484 1485 1485 1485 1485 1486 1486 1486 1486 1486 1486 1486 1486 1485 1485 1485 1484 1484 1483 1483 1483 1482 1482 1482
1510 1512 1521 1527 1523 1519 1501 1491 1490 1493 1496 1487 1486 1486 1486 1486 1489 1484 1481 1481 1481 1482 1482 1482 1482 1482 1482 1482 1482 1482 1482 1481 1481 1481 1481 1480 1480 1479 1479 1479 1478 1477 1477 1477
1514 1517 1520 1523 1521 1509 1494 1490 1490 1501 1495 1484 1483 1483 1484 1484 1483 1481 1479 1478 1478 1479 1479 1479 1478 1478 1478 1478 1478 1477 1477 1477 1477 1477 1476 1476 1476 1475 1475 1474 1474 1473 1473 1472
1510 1514 1517 1518 1518 1508 1489 1489 1491 1489 1483 1482 1481 1481 1480 1479 1478 1478 1477 1476 1475 1475 1475 1475 1475 1474 1474 1474 1474 1473 1473 1472 1472 1472 1472 1471 1471 1471 1470 1469 1469 1469 1468 1467
1503 1502 1502 1503 1498 1488 1485 1485 1483 1482 1481 1480 1479 1478 1478 1476 1475 1474 1474 1473 1473 1472 1472 1471 1471 1470 1470 1470 1470 1469 1468 1469 1468 1468 1467 1467 1466 1465 1465 1465 1464 1464 1463 1462
1497 1495 1496 1495 1487 1484 1482 1481 1480 1480 1478 1477 1476 1475 1475 1473 1472 1471 1471 1470 1469 1469 1469 1468 1467 1466 1466 1465 1465 1465 1464 1464 1464 1463 1462 1462 1461 1460 1460 1460 1460 1459 1458 1457
1491 1492 1493 1490 1484 1480 1477 1477 1476 1475 1474 1473 1473 1472 1471 1470 1469 1468 1467 1466 1466 1466 1465 1465 1464 1463 1462 1461 1460 1460 1460 1460 1459 1458 1458 1457 1457 1456 1455 1455 1454 1453 1453 1452
1486 1487 1488 1484 1478 1478 1474 1473 1473 1472 1470 1470 1469 1467 1467 1466 1465 1464 1463 1462 1462 1462 1461 1461 1460 1459 1458 1457 1456 1456 1456 1456 1454 1454 1453 1453 1452 1451 1450 1450 1449 1448 1447 1446